Preview of NWS' New Version of Forecast
This preview is not operational and should not be used for support decisions.

Regional Weather Roundup (RWR)

Issued by National Weather Service (NWS)

                            
000
ASUS45 KABQ 241410
RWRNM 
NEW MEXICO REGIONAL WEATHER ROUNDUP
NATIONAL WEATHER SERVICE ALBUQUERQUE NM
800 AM MDT SAT AUG 24 2019

NOTE: "FAIR" MEANS FEW OR NO CLOUDS BELOW 12,000 FEET AGL WITH NO
       SIGNIFICANT WEATHER OR OBSTRUCTIONS TO VISION.

      THIS PRODUCT IS RELEASED AS TWO VERSIONS.  ONE VERSION NEAR
      THE TOP OF THE HOUR CONTAINING PRELIMINARY DATA FROM ALBUQUERQUE
      AND OTHER STATIONS.  A FINAL VERSION WITH ADDITIONAL DATA IS 
      ISSUED ABOUT 10 MINUTES AFTER THE HOUR.
 
NMZ501-503-504-510>518-241500-
NORTHWEST PLATEAU/NORTHCENTRAL MOUNTAINS
  
CITY           SKY/WX    TMP DP  RH WIND       PRES   REMARKS
FARMINGTON     FAIR      61  34  36 E5        30.14R                  
LOS ALAMOS       N/A     62  46  55 SE3       30.27S                  
SANTA FE       FAIR      61  49  64 CALM      30.22R                  
TAOS           FAIR      55  37  50 N5        30.29R                  
ANGEL FIRE     FAIR      42  38  84 CALM      30.36S                  

$$
NMZ402-403-502-505>509-241500-
WESTCENTRAL MOUNTAINS/SOUTHWEST MOUNTAINS
  
CITY           SKY/WX    TMP DP  RH WIND       PRES   REMARKS
GALLUP         FAIR      65  43  44 S9        30.27R                  
GRANTS         FAIR      57  33  40 CALM      30.29R                  
SILVER CITY    FAIR      67  55  64 NW13      30.18S                  

$$
NMZ407-409-411-412-241500-
SOUTHERN DESERTS
  
CITY           SKY/WX    TMP DP  RH WIND       PRES   REMARKS
DEMING         FAIR      69  56  62 W10       30.12R                  
LAS CRUCES     FAIR      70  58  64 W8        30.13R                  
HOLLOMAN AFB   FAIR      73  55  54 SE7       30.11R                  
ALAMOGORDO     FAIR      70  54  56 SE7       30.10S                  
T OR C         FAIR      72  54  53 N3        30.12R                  

$$
NMZ519>523-241500-
CENTRAL VALLEYS/CENTRAL HIGHLANDS
  
CITY           SKY/WX    TMP DP  RH WIND       PRES   REMARKS
ALBUQUERQUE    FAIR      67  49  52 S3        30.16R                  
DOUBLE EAGLE   MOSUNNY   63  46  55 VRB5      30.19R                  
MORIARTY ARPT  FAIR      60  51  71 CALM      30.23S                  
CLINES CORNERS FAIR      60  52  74 CALM      30.27F                  
BELEN          FAIR      66  49  54 CALM      30.16R                  
SOCORRO        FAIR      68  53  57 SE7       30.14R                  

$$
NMZ524>526-539-540-241500-
SOUTHCENTRAL MOUNTAINS
  
CITY           SKY/WX    TMP DP  RH WIND       PRES   REMARKS
RUIDOSO        FAIR      64  48  55 CALM      30.28R                  

$$
NMZ527>531-241500-
NORTHEAST HIGHLANDS/NORTHEAST PLAINS
  
CITY           SKY/WX    TMP DP  RH WIND       PRES   REMARKS
LAS VEGAS      CLOUDY    57  52  83 SW8       30.25F                  
RATON          PTSUNNY   56  49  77 CALM      30.20S                  
CLAYTON        FAIR      62  56  80 SW15      30.10R                  

$$
NMZ532>537-241500-
EASTCENTRAL PLAINS
  
CITY           SKY/WX    TMP DP  RH WIND       PRES   REMARKS
SANTA ROSA     FAIR      65  62  89 CALM      30.13S                  
TUCUMCARI      FAIR      66  61  84 NW5       30.08S                  
CANNON AFB     FAIR      65  61  88 SE8       30.12R                  
CLOVIS AIRPORT CLOUDY    62  61  96 S6        30.11S FOG              

$$
NMZ028-029-538-241500-
SOUTHEAST PLAINS
  
CITY           SKY/WX    TMP DP  RH WIND       PRES   REMARKS
ROSWELL        FAIR      74  60  61 SW5       30.08R                  
ARTESIA        FAIR      73  63  68 SE12      30.08R                  
CARLSBAD       FAIR      72  62  71 S3        30.04S                  
HOBBS          MOSUNNY   70  66  88 SE9G16    30.08R                  


$$